Regional Weather Roundup
Issued by NWS

Home | Current Version | Previous Version | Graphics & Text | Print | Product List | Glossary On
Versions: 1 2 3 4 5 6 7 8 9 10 11 12 13 14 15 16 17 18 19 20 21 22 23 24 25 26 27 28 29 30 31 32 33 34 35 36 37 38 39 40 41 42 43 44 45 46 47 48 49 50
000
ASUS43 KIND 200909
RWRIN

WEATHER ROUNDUP FOR INDIANA
NATIONAL WEATHER SERVICE INDIANAPOLIS IN
500 AM EDT THU JUL 20 2017

NOTE: "FAIR" INDICATES FEW OR NO CLOUDS BELOW 12,000 FEET WITH NO
SIGNIFICANT WEATHER AND/OR OBSTRUCTIONS TO VISIBILITY.

* - STATION DOES NOT REPORT WEATHER SUCH AS PRECIPITATION OR FOG.

+ - STATION NOT QUALITY CONTROLLED BY THE NATIONAL WEATHER SERVICE.
    USE DATA WITH CAUTION...ESPECIALLY DEWPOINT AND RELATIVE
    HUMIDITY OBSERVATIONS.

INZ001>003-010>013-019-020-201000-
NORTHWEST INDIANA

CITY           SKY/WX    TMP DP  RH WIND       PRES   REMARKS
GARY /AIRPORT/ CLOUDY    71  68  92 S3        30.00F
KNOX *+        CLOUDY    68  68 100 SW7       30.00S
LA PORTE +     CLOUDY    68  66  93 SW7       30.00S
MICHIGAN CITY+ CLOUDY    68  68 100 SW7       29.98S
MONTICELLO +   MOCLDY    69  68  96 SW5       30.01F
RENSSELAER +   CLOUDY    70  66  88 S5        30.01F
VALPARAISO     CLOUDY    70  68  93 SW10      30.00F

$$

LMZ046-743>745-201000-
SOUTHERN LAKE MICHIGAN

STATION/POSITION TIME  TEMP    WIND        PRES    WAVE
                       AIR SEA DIR/SP/G            HT
                 (UTC) (F)     (DEG/KT/KT) (MB)    (FT)
BURNS HARBOR     0840   71     200/ 10/ 15 1015.2F
MICHIGAN CITY    0840   69     180/ 11/ 13   N/A
5NW MICH CITY    0900   71 74  220/ 10/ 12   N/A     1

$$

INZ004-005-014>016-021>024-201000-
NORTH CENTRAL INDIANA

CITY           SKY/WX    TMP DP  RH WIND       PRES   REMARKS
LOGANSPORT +   CLOUDY    70  68  94 SW7       30.03R
PERU/GRISSOM   PTCLDY    71  71 100 W7        30.01R
ROCHESTER +    CLOUDY    72  70  94 SW7       30.01R
SOUTH BEND     CLOUDY    69  67  93 SW7       29.98S
WARSAW +       CLOUDY    70  66  88 SW10      29.97S

$$

INZ006>009-017-018-025>027-201000-
NORTHEAST INDIANA

CITY           SKY/WX    TMP DP  RH WIND       PRES   REMARKS
ANGOLA *+      CLEAR     72  63  73 N5        30.00R
AUBURN +       CLOUDY    73  63  68 CALM      30.00R
FORT WAYNE     CLOUDY    72  65  78 S9        29.97F
HUNTINGTON +   CLOUDY    71  68  90 S5        29.96F
KENDALLVILLE + PTCLDY   N/A N/A N/A SE5       29.98F

$$

INZ028-029-035-036-043>045-051>053-201000-
WEST CENTRAL INDIANA

CITY           SKY/WX    TMP DP  RH WIND       PRES   REMARKS
GREENCASTLE +  MOCLDY    70  70 100 S3        30.05F
LAFAYETTE      MOCLDY    69  68  96 CALM      30.02F
TERRE HAUTE    PTCLDY    74  71  91 SE6       30.04F

$$

INZ030>032-037>040-046>048-054>057-064-065-201000-
CENTRAL INDIANA

CITY           SKY/WX    TMP DP  RH WIND       PRES   REMARKS
CP ATTERBURY + MOCLDY    70  68  94 N3        30.07F
FRANKFORT +    CLOUDY    71  69  93 CALM      30.04S
GREENWOOD *+   PTCLDY    74  71  89 SW3       30.06F
INDIANAPOLIS   MOCLDY    77  71  82 S10       30.02F
-EAGLE CREEK   CLOUDY    74  68  81 MISG      30.02F
KOKOMO +       PTCLDY    72  69  90 W8        30.03F
MARION +       CLOUDY    70  66  88 S10       29.99F
MT COMFORT *+  MOCLDY    73  70  88 SW3       30.06F
SHELBYVILLE    PTCLDY    74  69  85 S6        30.05F
ZIONSVILLE +   CLOUDY    70  68  93 SW6       30.04F

$$

INZ033-034-041-042-049-050-058-059-201000-
EAST CENTRAL INDIANA

CITY           SKY/WX    TMP DP  RH WIND       PRES   REMARKS
MUNCIE         CLOUDY    76  69  79 W5        30.04F
RICHMOND +     MOCLDY    70  70 100 SW6       30.07F FOG

$$

INZ060-061-067>069-081>083-085>088-201000-
SOUTHWEST INDIANA

CITY           SKY/WX    TMP DP  RH WIND       PRES   REMARKS
EVANSVILLE     PTCLDY    76  73  91 CALM      30.05F
HUNTINGBURG *+ CLEAR     74  72  93 S5        30.06F

$$

INZ062-063-066-070>080-084-089>092-201000-
SOUTH CENTRAL AND SOUTHEAST INDIANA

CITY           SKY/WX    TMP DP  RH WIND       PRES   REMARKS
BEDFORD +      CLEAR     72  68  88 CALM      30.06F
BLOOMINGTON    CLEAR     71  68  90 N3        30.07F FOG
MADISON *+     CLEAR     70  68  94 CALM      30.08F
NORTH VERNON + PTCLDY    68  66  94 CALM      30.08F FOG
SEYMOUR +      CLEAR     70  70 100 CALM      30.06F

$$





USA.gov is the U.S. government's official web portal to all federal, state and local government web resources and services.